Погода в Йончхоне

Южная Корея     35°58′15″N   128°56′18″E
темп.,
°C
ветер,
м/с
пор.,
м/с
влажн.,
%
обл.,
%
осадки,
мм/ч
давл.,
гПа
погр.,
м
28 января, чт
чт2800:00+1зюз1158100 0.0 102122
03:000зсз1159100 0.0 101822
06:000юз1161100 0.0 101721
09:00+2юз1257100 0.0 1015139
12:00+8зюз611370 0.0 10111602
15:00+1зсз8177217 0.3 10101554
18:00−4зсз8185368 0.1 10142056
21:00−7зсз9205959 0.1 10161781
29 января, пт
пт2900:00−8зсз10194721 0.0 10191330
03:00−9зсз10205211 0.0 10191151
06:00−10зсз920510 0.0 10201130
09:00−9зсз920470 0.0 10221194
12:00−4зсз920250 0.0 10231505
15:00−3зсз817250 0.0 10221554
18:00−6з413410 0.0 10241163
21:00−7з310550 0.0 1025876
30 января, сб
сб3000:00−7зюз25630 0.0 1026197
03:00−7зюз23670 0.0 102697
06:00−7з12710 0.0 102535
09:00−4зюз25660 0.0 1025219
12:00+5зюз410520 0.0 10241129
15:00+8з6124816 0.0 10231795
18:00+3з3117244 0.0 1024330
21:000з259222 0.0 1026141
31 января, вс
вс3100:00−1зюз229473 0.0 102737
03:00−2зсз118287 0.0 102822
06:00−3зсз117596 0.0 102821
09:00+1з115655 0.0 102976
12:00+8зюз12340 0.0 1028505
15:00+9зюз24460 0.0 10261004
18:00+3юз12810 0.0 102522
21:00+1юз119210 0.0 102522
1 февраля, пн
пн100:00+2зюз009157 0.0 102422
03:00+2юз019364 0.0 102222
06:00+2з119595 0.0 101922
09:00+4з119193 0.0 101884
12:00+9зюз4770100 0.0 1016754
15:00+10зюз5959100 0.1 10141419
18:00+7зюз51259100 0.0 1013593
21:00+6з51065100 0.0 1015854